Athens, GA

8:53 AM EDT on June 21, 2018 (GMT -0400)
Athens / Epps

Weather History for KAHN - September, 2017

Change the Weather History Date:

Thursday, September 14, 2017

  Actual Average Record
Temperature  
Mean Temperature 73 °F 74 °F  
Max Temperature 81 °F 85 °F 103 °F (1927)
Min Temperature 64 °F 64 °F 47 °F (1953)
Degree Days  
Heating Degree Days 0 0  
Month to date heating degree days 9 0  
Since 1 July heating degree days 9 0  
Cooling Degree Days 8 9  
Month to date cooling degree days 61 153  
Year to date cooling degree days 1700 1708  
Growing Degree Days 22 (Base 50)    
Moisture  
Dew Point 65 °F    
Average Humidity 81    
Maximum Humidity 100    
Minimum Humidity 62    
Precipitation  
Precipitation T in 0.13 in 3.54 in (2002)
Month to date precipitation 4.19 1.65  
Year to date precipitation 46.18 32.94  
Sea Level Pressure  
Sea Level Pressure 29.97 in    
Wind  
Wind Speed 1 mph (WSW)    
Max Wind Speed 7 mph    
Max Gust Speed 11 mph    
Visibility 10 miles    
Events Rain    
T = Trace of Precipitation, MM = Missing Value Source: NWS Daily Summary

Daily Weather History Graph

Daily Weather History Graph

Search for Another Location

Airport or City:

Astronomy

Sep. 14, 2017 Rise Set
Actual Time 7:16 AM EDT 7:40 PM EDT
Civil Twilight 6:51 AM EDT 8:05 PM EDT
Nautical Twilight 6:21 AM EDT 8:35 PM EDT
Astronomical Twilight 5:51 AM EDT 9:05 PM EDT
Moon 1:23 AM EDT (9/14) 3:45 PM EDT (9/14)
Length of Visible Light 13h 14m
Length of Day
12h 24m
Waning Crescent, 34% of the Moon is Illuminated
Sep 14
Waning Crescent
Sep 20
New
Sep 27
First Quarter
Oct 5
Full
Oct 12
Last Quarter

Hourly Weather History & Observations

Time (EDT) Temp. Dew Point Humidity Pressure Visibility Wind Dir Wind Speed Gust Speed Precip Events Conditions
12:51 AM 64.9 °F 64.0 °F 97% 29.93 in 9.0 mi Calm Calm - 0.00 in   Overcast
1:51 AM 64.0 °F 63.0 °F 96% 29.92 in 10.0 mi Calm Calm - N/A   Overcast
2:51 AM 64.9 °F 64.0 °F 97% 29.92 in 10.0 mi Calm Calm - N/A   Overcast
3:51 AM 64.9 °F 64.9 °F 100% 29.93 in 9.0 mi Calm Calm - 0.00 in Rain Light Rain
4:51 AM 64.9 °F 64.9 °F 100% 29.92 in 7.0 mi Calm Calm - 0.00 in   Overcast
5:51 AM 64.0 °F 64.0 °F 100% 29.93 in 10.0 mi Calm Calm - N/A   Overcast
6:51 AM 64.0 °F 64.0 °F 100% 29.95 in 10.0 mi Calm Calm - N/A   Overcast
7:51 AM 64.0 °F 64.0 °F 100% 29.97 in 8.0 mi Calm Calm - N/A   Overcast
8:51 AM 68.0 °F 66.0 °F 93% 29.98 in 8.0 mi Calm Calm - N/A   Overcast
9:51 AM 70.0 °F 64.9 °F 84% 29.99 in 10.0 mi Calm Calm - N/A   Overcast
10:51 AM 73.0 °F 64.0 °F 73% 30.00 in 10.0 mi Calm Calm - N/A   Overcast
11:51 AM 75.9 °F 63.0 °F 64% 30.00 in 10.0 mi Calm Calm - N/A   Overcast
12:51 PM 78.1 °F 64.0 °F 62% 29.98 in 10.0 mi Calm Calm - N/A   Overcast
1:51 PM 79.0 °F 64.9 °F 62% 29.98 in 10.0 mi Calm Calm - N/A   Overcast
2:51 PM 79.0 °F 64.9 °F 62% 29.97 in 10.0 mi SSW 5.8 mph - N/A   Overcast
3:51 PM 77.0 °F 66.0 °F 69% 29.96 in 10.0 mi Calm Calm - N/A   Overcast
4:51 PM 78.1 °F 64.9 °F 64% 29.95 in 10.0 mi Variable 4.6 mph - N/A   Overcast
5:51 PM 78.1 °F 66.0 °F 66% 29.96 in 10.0 mi WNW 4.6 mph - N/A   Overcast
6:51 PM 75.0 °F 66.0 °F 73% 29.96 in 10.0 mi Calm Calm - N/A   Scattered Clouds
7:51 PM 70.0 °F 64.9 °F 84% 29.98 in 10.0 mi Calm Calm - N/A   Clear
8:51 PM 68.0 °F 66.9 °F 96% 29.99 in 10.0 mi Calm Calm - N/A   Scattered Clouds
9:51 PM 66.9 °F 66.0 °F 97% 30.00 in 10.0 mi Calm Calm - N/A   Clear
10:51 PM 64.9 °F 64.9 °F 100% 30.01 in 10.0 mi Calm Calm - N/A   Clear
11:51 PM 64.0 °F 64.0 °F 100% 30.02 in 9.0 mi Calm Calm - N/A   Clear